Home > Weather > Rainy River > Past weeks

Flag for Canada Past Weather in Rainy River, Ontario, Canada — Yesterday and Last 2 Weeks

Now
62 °F

Fog.


Feels Like: 62 °F
Forecast: 52 / 80 °F
Wind: 10 mph from Southeast

Location: Baudette International Airport

Current Time: Aug 28, 2016 at 11:51:18 AM

Latest Report: Aug 28, 2016 at 10:53 AM


Visibility: 6 mi

Pressure: 30.11 "Hg

Humidity: 96%

Dew Point: 61 °F

Location of Rainy RiverLocation

Past Weather in Rainy River — Graph

°F

Rainy River Temperature Yesterday

Maximum temperature yesterday: 65 °F (at 9:53 AM)
Minimum temperature yesterday: 53 °F (at 11:53 PM)
Average temperature yesterday: 59 °F

High & Low Weather Summary for the Past Weeks

 TemperatureHumidityPressure
High86 °F (Aug 23, 4:53 PM)100% (Aug 17, 5:53 AM)30.11 "Hg (Aug 17, 5:53 AM)
Low46 °F (Aug 26, 4:53 AM)37% (Aug 26, 3:53 PM)29.67 "Hg (Aug 23, 4:53 PM)
Average65 °F76%29.91 "Hg
* Reported Aug 13 10:53 AM — Aug 28 10:53 AM, Rainy River, Weather by CustomWeather, © 2016

Note: Actual official high and low records may vary slightly from our data, if they occured in-between our weather recording intervals... More about our weather records

Advertising

Rainy River Weather History for the Previous 24 Hours

Scroll right to see more
 ConditionsComfort  
Time TempWeatherWind HumidityBarometerVisibility
10:53 AM
Sun, Aug 28
62 °FFog.10 mph96%30.11 "Hg6 mi
10:00 AM61 °FFog.7 mph97%30.09 "Hg2 mi
8:53 AM59 °FFog.7 mph96%30.11 "Hg1 mi
7:53 AM57 °FFog.6 mph100%30.09 "Hg0 mi
6:53 AM55 °FFog.7 mph100%30.09 "Hg0 mi
5:53 AM55 °FFog.6 mph100%30.07 "Hg0 mi
4:53 AM54 °FFog.5 mph100%30.05 "Hg1 mi
3:53 AM53 °FFog.5 mph100%30.04 "Hg0 mi
2:53 AM51 °FLow clouds.No wind96%30.04 "Hg10 mi
1:53 AM51 °FClear.5 mph96%30.03 "Hg10 mi
12:53 AM53 °FClear.6 mph93%30.02 "Hg10 mi
11:53 PM
Sat, Aug 27
53 °FClear.6 mph96%30.02 "Hg10 mi
10:53 PM54 °FClear.5 mph97%30.01 "Hg10 mi
9:53 PM56 °FPassing clouds.7 mph97%29.99 "Hg10 mi
8:53 PM58 °FPartly sunny.5 mph93%29.99 "Hg10 mi
7:53 PM59 °FMostly cloudy.6 mph90%29.97 "Hg10 mi
6:53 PM60 °FScattered clouds.5 mph90%29.97 "Hg10 mi
5:53 PM60 °FPassing clouds.3 mph90%29.97 "Hg10 mi
4:53 PM59 °FScattered clouds.6 mph90%29.97 "Hg10 mi
3:53 PM59 °FPartly sunny.5 mph90%29.95 "Hg10 mi
2:53 PM58 °FLight rain. Overcast.6 mph93%29.98 "Hg9 mi
1:53 PM58 °FRain. Fog.7 mph93%29.99 "Hg4 mi
12:57 PM60 °FLight rain. Fog.3 mph93%29.99 "Hg3 mi
12:00 PM60 °FHeavy rain. Fog.6 mph93%30.01 "Hg1 mi
11:53 AM60 °FLight rain. Fog.7 mph96%30.01 "Hg5 mi
Weather by CustomWeather, © 2016

See weather overviewHow to use our weather pages